Regional Weather Roundup
Issued by NWS

Home | Current Version | Previous Version | Graphics & Text | Print | Product List | Glossary On
Versions: 1 2 3 4 5 6 7 8 9 10 11 12 13 14 15 16 17 18 19 20 21 22 23 24 25 26 27 28 29 30 31 32 33 34 35 36 37 38 39 40 41 42 43 44 45 46 47 48 49 50
000
ASUS44 KMEG 050100
RWRTN
TENNESSEE HOURLY STATE WEATHER ROUNDUP
NATIONAL WEATHER SERVICE MEMPHIS TN
800 PM CDT FRI SEP 04 2015

TNZ002-004-019-021-049-052-054-088>092-050200-
WEST TENNESSEE

CITY           SKY/WX    TMP DP  RH WIND       PRES   REMARKS
MEMPHIS INTL   PTCLDY    85  70  60 N3        29.97S
NWS MEMPHIS      N/A     83 N/A N/A MISG        N/A
JACKSON        PTCLDY    80  73  79 CALM      29.99R
DYERSBURG      PTCLDY    81  73  78 CALM      29.99R
UNION CITY     CLEAR     79  73  83 CALM      29.98R
PARIS          CLEAR     75  70  83 CALM      30.01R
LEXINGTON      CLEAR     73  72  94 CALM      29.99S
$$

TNZ008-025-027-028-033-062-065-066-050200-
NORTH MIDDLE TENNESSEE

CITY           SKY/WX    TMP DP  RH WIND       PRES   REMARKS
NASHVILLE      PTCLDY    86  63  45 E3        30.01R
CLARKSVILLE    CLEAR     79  67  66 NE3       30.00R
COOKEVILLE     CLEAR     73  70  88 NE3       30.04R
CROSSVILLE     CLEAR     74  66  76 CALM      30.10R
$$

TNZ061-075-076-078-094-096-097-050200-
SOUTH MIDDLE TENNESSEE

CITY           SKY/WX    TMP DP  RH WIND       PRES   REMARKS
FAYETTEVILLE   CLEAR     77  72  83 CALM      30.02R
TULLAHOMA      CLEAR     75  70  83 CALM      30.05R
WINCHESTER     CLEAR     75  73  94 CALM      30.03R
COLUMBIA       CLEAR     81  79  94 CALM      30.00R
SHELBYVILLE    CLEAR     77  73  88 CALM      30.03R
$$

TNZ017-018-042-046-047-050200-
NORTHEAST TENNESSEE

CITY           SKY/WX    TMP DP  RH WIND       PRES   REMARKS
TRI CITIES     MOCLDY    77  66  68 CALM      30.09R
ELIZABETHTON   PTCLDY    73  66  78 NE6       30.10R
$$

TNZ012-013-036-069-073-074-050200-
CENTRAL EAST TENNESSEE

CITY           SKY/WX    TMP DP  RH WIND       PRES   REMARKS
KNOXVILLE      CLEAR     82  64  54 NE3       30.02R
OAK RIDGE      CLEAR     79  71  76 CALM      30.05R
GATLINBURG     CLEAR     79  63  57 CALM      30.04R
$$

TNZ083-085-099-050200-
SOUTHEAST TENNESSEE

CITY           SKY/WX    TMP DP  RH WIND       PRES   REMARKS
CHATTANOOGA    PTCLDY    79  71  76 NW5       30.01R
$$

SKY/WX REPORTED AS FAIR MEANS FEW OR NO CLOUDS BELOW
12 THOUSAND FEET.



USA.gov is the U.S. government's official web portal to all federal, state and local government web resources and services.